TimePST,TemperatureF,Dew PointF,Humidity,Sea Level PressureIn,VisibilityMPH,Wind Direction,Wind SpeedMPH,Gust SpeedMPH,PrecipitationIn,Events,Conditions,WindDirDegrees,DateUTC
12:55 AM,46.9,45.0,93,29.70,9.0,SW,6.9,-,0.00,,Overcast,220,2014-03-02 08:55:00
1:09 AM,46.9,45.0,93,29.70,8.0,SSW,6.9,-,N/A,,Overcast,210,2014-03-02 09:09:00
1:17 AM,46.9,45.0,93,29.70,6.0,SW,6.9,-,0.00,Rain,Light Rain,220,2014-03-02 09:17:00
1:41 AM,46.9,45.0,93,29.70,5.0,SW,6.9,-,0.00,,Overcast,230,2014-03-02 09:41:00
1:55 AM,46.9,45.0,93,29.71,7.0,SW,8.1,-,0.00,Rain,Light Rain,220,2014-03-02 09:55:00
2:08 AM,46.9,45.0,93,29.71,4.0,SW,5.8,-,0.00,Rain,Light Rain,230,2014-03-02 10:08:00
2:55 AM,46.9,45.0,93,29.71,5.0,WSW,6.9,-,0.01,,Overcast,240,2014-03-02 10:55:00
3:55 AM,46.9,45.0,93,29.69,3.0,SSW,5.8,-,0.01,Rain,Light Rain,210,2014-03-02 11:55:00
4:43 AM,44.1,41.0,89,29.68,10.0,East,6.9,-,0.00,,Overcast,100,2014-03-02 12:43:00
4:55 AM,44.1,41.0,89,29.68,10.0,East,6.9,-,0.00,,Overcast,90,2014-03-02 12:55:00
4:58 AM,43.0,41.0,93,29.68,10.0,Variable,3.5,-,N/A,,Overcast,0,2014-03-02 12:58:00
5:48 AM,43.0,39.9,89,29.67,10.0,East,5.8,-,0.00,,Overcast,80,2014-03-02 13:48:00
5:55 AM,43.0,39.9,89,29.67,10.0,East,6.9,-,0.00,,Overcast,90,2014-03-02 13:55:00
6:12 AM,43.0,41.0,93,29.66,10.0,East,5.8,-,N/A,,Overcast,90,2014-03-02 14:12:00
6:55 AM,43.0,39.9,89,29.65,10.0,East,5.8,-,N/A,,Overcast,100,2014-03-02 14:55:00
7:55 AM,43.0,39.9,89,29.64,7.0,East,4.6,-,0.02,Rain,Light Rain,100,2014-03-02 15:55:00
8:31 AM,43.0,41.0,93,29.64,1.8,East,6.9,-,0.03,Rain,Light Rain,90,2014-03-02 16:31:00
8:55 AM,43.0,41.0,93,29.63,2.5,East,9.2,-,0.09,Rain,Light Rain,80,2014-03-02 16:55:00
9:03 AM,43.0,41.0,93,29.63,4.0,East,8.1,-,0.02,Rain,Light Rain,90,2014-03-02 17:03:00
9:19 AM,44.1,41.0,89,29.63,2.5,East,9.2,-,0.07,Rain,Rain,90,2014-03-02 17:19:00
9:28 AM,44.1,41.0,89,29.62,4.0,East,9.2,-,0.09,Rain,Light Rain,90,2014-03-02 17:28:00
9:55 AM,44.1,42.1,93,29.62,3.0,East,6.9,-,0.18,Rain,Rain,80,2014-03-02 17:55:00
10:21 AM,44.1,42.1,93,29.62,7.0,Calm,Calm,-,0.06,Rain,Light Rain,0,2014-03-02 18:21:00
10:44 AM,50.0,46.9,89,29.62,6.0,South,16.1,31.1,0.09,Rain,Light Rain,190,2014-03-02 18:44:00
10:55 AM,51.1,46.9,86,29.61,10.0,SSW,17.3,26.5,0.10,Rain,Light Rain,200,2014-03-02 18:55:00
11:09 AM,52.0,46.9,83,29.61,10.0,South,19.6,28.8,0.00,Rain,Light Rain,190,2014-03-02 19:09:00
11:28 AM,51.1,46.9,86,29.60,5.0,SSW,19.6,36.8,0.00,Rain,Light Rain,200,2014-03-02 19:28:00
11:51 AM,51.8,48.2,88,29.60,10.0,SSW,23.0,32.2,0.01,Rain,Light Rain,200,2014-03-02 19:51:00
11:55 AM,52.0,48.0,86,29.60,10.0,SSW,20.7,35.7,0.01,Rain,Light Rain,200,2014-03-02 19:55:00
12:19 PM,52.0,48.0,86,29.60,8.0,SSW,21.9,36.8,0.00,Rain,Light Rain,200,2014-03-02 20:19:00
12:31 PM,51.1,48.0,89,29.60,7.0,SSW,24.2,36.8,0.01,Rain,Light Rain,200,2014-03-02 20:31:00
12:55 PM,51.1,48.0,89,29.60,6.0,SSW,19.6,32.2,0.01,Rain,Light Rain,200,2014-03-02 20:55:00
1:07 PM,51.1,46.9,86,29.59,5.0,SSW,20.7,34.5,0.00,Rain,Light Rain,200,2014-03-02 21:07:00
1:18 PM,51.1,46.9,86,29.58,6.0,SSW,15.0,32.2,0.01,Rain,Light Rain,200,2014-03-02 21:18:00
1:37 PM,51.1,48.0,89,29.57,3.0,SSW,16.1,28.8,0.02,Rain,Light Rain,200,2014-03-02 21:37:00
1:50 PM,51.8,48.2,88,29.56,2.5,South,12.7,26.5,0.02,Rain,Light Rain,180,2014-03-02 21:50:00
1:55 PM,51.1,48.0,89,29.56,2.0,South,16.1,25.3,0.04,Rain,Rain,190,2014-03-02 21:55:00
2:04 PM,51.1,48.0,89,29.55,3.0,South,15.0,26.5,0.01,Rain,Light Rain,190,2014-03-02 22:04:00
2:55 PM,52.0,48.9,89,29.55,3.0,South,23.0,39.1,0.01,Rain,Light Rain,190,2014-03-02 22:55:00
3:04 PM,53.1,48.9,86,29.55,5.0,South,23.0,40.3,0.00,Rain,Light Rain,190,2014-03-02 23:04:00
3:41 PM,53.1,48.9,86,29.55,8.0,South,23.0,42.6,0.01,Rain,Light Rain,190,2014-03-02 23:41:00
3:55 PM,53.1,48.9,86,29.55,3.0,South,19.6,47.2,0.01,Rain,Light Rain,190,2014-03-02 23:55:00
4:04 PM,52.0,48.9,89,29.54,2.0,South,23.0,35.7,0.01,Rain,Light Rain,190,2014-03-03 00:04:00
4:24 PM,52.0,48.9,89,29.54,1.5,South,28.8,44.9,0.01,Rain,Light Rain,190,2014-03-03 00:24:00
4:30 PM,52.0,48.9,89,29.54,3.0,SSW,32.2,48.3,0.02,Rain,Light Rain,200,2014-03-03 00:30:00
4:39 PM,52.0,48.0,86,29.54,8.0,SSW,28.8,46.0,0.02,,Overcast,200,2014-03-03 00:39:00
4:55 PM,52.0,48.0,86,29.55,4.0,South,28.8,40.3,0.04,Rain,Light Rain,190,2014-03-03 00:55:00
5:55 PM,52.0,46.9,83,29.56,8.0,South,26.5,43.7,0.01,,Overcast,190,2014-03-03 01:55:00
6:42 PM,51.1,46.9,86,29.60,5.0,SSW,24.2,40.3,0.00,Rain,Light Rain,200,2014-03-03 02:42:00
6:52 PM,50.0,48.2,94,29.61,2.5,SSW,21.9,35.7,0.00,Rain,Light Rain,210,2014-03-03 02:52:00
6:55 PM,50.0,46.9,89,29.61,3.0,SSW,26.5,35.7,0.00,Rain,Light Rain,210,2014-03-03 02:55:00
7:08 PM,50.0,46.9,89,29.62,2.0,SSW,19.6,43.7,0.00,Rain,Light Rain,210,2014-03-03 03:08:00
7:39 PM,50.0,46.9,89,29.66,3.0,WSW,23.0,33.4,0.03,Rain,Light Rain,250,2014-03-03 03:39:00
7:48 PM,48.9,46.0,90,29.68,10.0,WSW,18.4,28.8,0.03,,Overcast,250,2014-03-03 03:48:00
7:55 PM,48.9,46.0,90,29.69,10.0,WSW,16.1,-,0.03,,Overcast,250,2014-03-03 03:55:00
8:06 PM,48.9,46.0,90,29.70,10.0,WSW,13.8,20.7,N/A,,Overcast,240,2014-03-03 04:06:00
8:38 PM,48.9,46.0,90,29.73,10.0,SW,12.7,20.7,N/A,,Overcast,220,2014-03-03 04:38:00
8:45 PM,48.9,46.0,90,29.73,10.0,SW,12.7,-,N/A,,Overcast,220,2014-03-03 04:45:00
8:55 PM,48.9,46.0,90,29.74,10.0,SW,10.4,20.7,N/A,,Overcast,220,2014-03-03 04:55:00
9:08 PM,48.9,46.0,90,29.75,10.0,SSW,11.5,19.6,N/A,,Overcast,210,2014-03-03 05:08:00
9:22 PM,48.9,46.0,90,29.76,10.0,SW,11.5,-,N/A,,Overcast,220,2014-03-03 05:22:00
9:45 PM,48.9,46.0,90,29.76,10.0,SSW,12.7,-,N/A,,Overcast,210,2014-03-03 05:45:00
9:55 PM,48.9,46.0,90,29.77,10.0,SW,11.5,-,N/A,,Overcast,220,2014-03-03 05:55:00
10:18 PM,48.9,46.0,90,29.77,10.0,SW,12.7,-,0.00,,Overcast,220,2014-03-03 06:18:00
10:45 PM,48.9,46.0,90,29.77,10.0,SW,16.1,23.0,0.00,,Overcast,220,2014-03-03 06:45:00
10:55 PM,48.9,46.0,90,29.78,10.0,SW,17.3,25.3,0.00,,Overcast,220,2014-03-03 06:55:00
11:55 PM,50.0,46.9,89,29.78,8.0,SW,18.4,27.6,0.00,Rain,Light Rain,220,2014-03-03 07:55:00